FW1998 Weather Reports


time (UTC)temp
C
wind
direction
speed
KPH
gust
KPH
rain 1hr
cm
rain 24hr
cm
rain mn
cm
humidity
%
barometer
mb
20200227115957 6 12 6.4 19.3 0.00 0.00 0.00 78 1000.7
20200227115346 6 220 4.8 19.3 0.00 0.00 0.00 77 1000.7
20200227114757 6 76 3.2 12.9 0.00 0.00 0.00 74 1001.0
20200227114149 6 350 0.0 6.4 0.00 0.00 0.00 73 1001.4
20200227113557 6 261 1.6 6.4 0.00 0.00 0.00 73 1001.4
20200227112949 6 289 1.6 12.9 0.00 0.00 0.00 73 1001.7
20200227112357 6 331 3.2 12.9 0.00 0.00 0.00 73 1002.0
20200227111749 6 231 1.6 12.9 0.00 0.00 0.00 74 1002.4
20200227111157 6 274 6.4 25.7 0.00 0.00 0.00 74 1002.4
20200227110549 6 80 4.8 19.3 0.00 0.00 0.00 74 1002.7
20200227105957 6 194 1.6 12.9 0.00 0.00 0.00 76 1003.0
20200227105349 6 301 3.2 12.9 0.00 0.00 0.00 76 1003.4
20200227104757 6 187 4.8 19.3 0.00 0.00 0.00 76 1003.7
20200227104149 6 282 3.2 12.9 0.00 0.00 0.00 76 1004.1
20200227103553 5 56 3.2 12.9 0.00 0.00 0.00 78 1004.1
20200227102948 5 284 9.7 25.7 0.00 0.00 0.00 79 1004.1
20200227102353 5 125 1.6 19.3 0.00 0.00 0.00 82 1004.4
20200227101748 5 288 3.2 19.3 0.00 0.00 0.00 79 1004.4
20200227101153 5 273 4.8 19.3 0.00 0.00 0.00 82 1004.7
20200227100548 5 240 1.6 12.9 0.00 0.00 0.00 82 1004.7
20200227095953 5 214 1.6 19.3 0.00 0.00 0.00 82 1004.7
20200227095348 5 296 1.6 12.9 0.00 0.00 0.00 84 1005.4
20200227094753 5 238 6.4 19.3 0.00 0.00 0.00 83 1005.4
20200227094148 5 287 1.6 12.9 0.00 0.00 0.00 84 1005.8
20200227093553 5 289 4.8 19.3 0.00 0.00 0.00 83 1005.8
20200227092948 5 302 6.4 25.7 0.00 0.00 0.00 84 1006.1
20200227092353 5 298 1.6 12.9 0.00 0.00 0.00 84 1006.1
20200227091748 5 230 3.2 25.7 0.00 0.00 0.00 84 1006.4
20200227091154 5 260 3.2 19.3 0.00 0.00 0.00 85 1006.4
20200227090548 5 263 0.0 6.4 0.00 0.00 0.00 84 1006.8
20200227085953 4 267 0.0 12.9 0.00 0.00 0.00 86 1006.8
20200227085348 4 328 1.6 19.3 0.00 0.00 0.00 86 1007.1
20200227084753 4 279 1.6 12.9 0.00 0.00 0.00 86 1007.1
20200227084148 3 297 1.6 12.9 0.00 0.00 0.00 89 1007.1
20200227083553 3 229 8.0 32.2 0.00 0.00 0.00 89 1007.1
20200227082948 3 225 4.8 38.6 0.00 0.00 0.00 90 1007.4
20200227082354 3 259 4.8 25.7 0.00 0.00 0.00 89 1007.4
20200227081748 3 176 4.8 19.3 0.00 0.00 0.00 91 1007.4
20200227081153 2 208 1.6 19.3 0.00 0.00 0.00 95 1007.8
20200227080548 2 136 1.6 12.9 0.00 0.00 0.00 95 1007.8
20200227075953 2 283 1.6 19.3 0.00 0.00 0.00 96 1008.1
20200227075348 2 248 3.2 19.3 0.00 0.00 0.00 96 1007.8
20200227074753 2 246 0.0 6.4 0.00 0.00 0.00 97 1008.1
20200227074148 2 257 0.0 6.4 0.00 0.00 0.00 97 1008.5
20200227073553 2 205 0.0 0.0 0.00 0.00 0.00 98 1008.5
20200227072948 2 291 0.0 0.0 0.00 0.00 0.00 99 1008.5
20200227072353 2 280 0.0 6.4 0.00 0.00 0.00 99 1008.5
20200227071748 2 288 1.6 19.3 0.00 0.00 0.00 98 1008.5
20200227071153 2 279 1.6 12.9 0.00 0.00 0.00 98 1008.5
20200227070548 1 258 1.6 12.9 0.00 0.00 0.00 99 1008.5
20200227065953 1 265 1.6 19.3 0.00 0.00 0.00 99 1008.5
20200227065348 1 275 0.0 12.9 0.00 0.00 0.00 99 1008.5
20200227064753 1 286 0.0 6.4 0.00 0.00 0.00 99 1008.8
20200227064145 1 295 0.0 6.4 0.00 0.00 0.00 99 1008.8
20200227063553 1 296 0.0 6.4 0.00 0.00 0.00 99 1008.8
20200227062945 1 283 0.0 6.4 0.00 0.00 0.00 99 1008.8
20200227062353 2 232 0.0 12.9 0.00 0.00 0.00 99 1009.1
20200227061745 2 270 1.6 12.9 0.00 0.00 0.00 99 1008.8
20200227061153 2 266 0.0 6.4 0.00 0.00 0.00 99 1009.1
20200227060545 2 281 0.0 6.4 0.00 0.00 0.00 99 1008.8
20200227055953 2 284 0.0 12.9 0.00 0.00 0.00 99 1009.1
20200227055345 2 278 1.6 12.9 0.00 0.00 0.00 99 1009.1
20200227054753 2 296 4.8 19.3 0.00 0.00 0.00 99 1008.8
20200227054145 2 293 3.2 12.9 0.00 0.00 0.00 99 1009.1
20200227053553 2 305 3.2 12.9 0.00 0.00 0.00 99 1009.1
20200227052945 1 267 6.4 19.3 0.00 0.00 0.00 99 1009.1
20200227052353 1 259 4.8 19.3 0.00 0.00 0.00 99 1009.1
20200227051745 1 287 3.2 12.9 0.00 0.00 0.00 99 1009.5
20200227051153 1 312 3.2 19.3 0.00 0.00 0.00 99 1009.1
20200227050545 1 286 0.0 6.4 0.00 0.00 0.00 99 1009.5
20200227045953 1 295 0.0 6.4 0.00 0.00 0.00 99 1009.5
20200227045345 1 266 0.0 6.4 0.00 0.00 0.00 99 1009.5
20200227044753 1 282 0.0 6.4 0.00 0.00 0.00 99 1009.5
20200227044145 1 302 0.0 0.0 0.00 0.00 0.00 99 1009.5
20200227043553 1 288 0.0 0.0 0.00 0.00 0.00 99 1009.5
20200227042945 1 284 0.0 6.4 0.00 0.00 0.00 99 1009.5
20200227042353 1 259 3.2 12.9 0.00 0.00 0.00 99 1009.8
20200227041745 1 264 4.8 25.7 0.00 0.00 0.00 99 1009.5
20200227041153 1 285 4.8 12.9 0.00 0.00 0.00 99 1009.8
20200227040545 1 275 1.6 12.9 0.00 0.00 0.00 99 1009.8
20200227035953 2 311 1.6 12.9 0.00 0.00 0.00 99 1009.8
20200227035345 2 283 1.6 12.9 0.00 0.00 0.00 99 1010.2
20200227034753 2 305 3.2 12.9 0.00 0.00 0.00 99 1009.8
20200227034145 2 285 4.8 12.9 0.00 0.00 0.00 99 1009.5
20200227033553 2 287 6.4 19.3 0.00 0.00 0.00 99 1009.8
20200227032945 2 266 8.0 25.7 0.00 0.00 0.00 99 1009.5
20200227032353 2 259 4.8 19.3 0.00 0.00 0.00 99 1009.8
20200227031745 2 283 8.0 25.7 0.00 0.00 0.00 99 1009.8
20200227031153 2 270 4.8 19.3 0.00 0.00 0.00 99 1009.8
20200227030545 2 293 9.7 32.2 0.00 0.00 0.00 99 1009.5
20200227025953 2 276 1.6 12.9 0.00 0.00 0.00 99 1009.8
20200227025345 2 293 1.6 12.9 0.00 0.00 0.00 99 1009.8
20200227024753 2 286 3.2 12.9 0.00 0.00 0.00 99 1009.5
20200227024145 2 293 4.8 19.3 0.00 0.00 0.00 99 1009.8
20200227023553 2 302 4.8 19.3 0.00 0.00 0.00 99 1009.5
20200227022945 2 286 1.6 12.9 0.00 0.00 0.00 99 1009.8
20200227022353 2 274 0.0 0.0 0.00 0.00 0.00 99 1009.8
20200227021745 2 302 3.2 12.9 0.00 0.00 0.00 99 1010.2
20200227021153 2 282 4.8 19.3 0.00 0.00 0.00 99 1009.8
20200227020545 2 281 6.4 19.3 0.00 0.00 0.00 99 1010.2
20200227015953 2 298 3.2 12.9 0.00 0.00 0.00 99 1010.2
20200227015345 2 276 6.4 19.3 0.00 0.00 0.00 99 1010.2
20200227014753 2 302 8.0 25.7 0.00 0.00 0.00 99 1009.8
20200227014145 2 294 4.8 19.3 0.00 0.00 0.00 99 1010.2
20200227013553 2 277 1.6 12.9 0.00 0.00 0.00 99 1010.2
20200227012945 2 272 3.2 12.9 0.00 0.00 0.00 99 1010.2
20200227012353 2 274 3.2 19.3 0.00 0.00 0.00 99 1010.2
20200227011745 2 268 1.6 12.9 0.00 0.00 0.00 99 1010.2
20200227011153 2 287 3.2 19.3 0.00 0.00 0.00 99 1010.2
20200227010545 2 270 1.6 12.9 0.00 0.00 0.00 99 1010.2
20200227005953 2 255 3.2 12.9 0.00 0.00 0.00 99 1010.2
20200227005345 2 333 1.6 6.4 0.00 0.00 0.00 99 1010.2
20200227004753 2 277 3.2 25.7 0.00 0.00 0.00 99 1009.8
20200227004145 2 331 4.8 19.3 0.00 0.00 0.00 99 1010.2
20200227003553 2 277 4.8 19.3 0.00 0.00 0.00 99 1010.2
20200227002945 2 274 1.6 12.9 0.00 0.00 0.00 99 1010.2
20200227002353 2 309 3.2 12.9 0.00 0.00 0.00 99 1009.8
20200227001745 2 227 3.2 19.3 0.00 0.00 0.00 99 1009.8
20200227001153 2 317 3.2 12.9 0.00 0.00 0.00 99 1009.8
20200227000545 2 290 1.6 12.9 0.00 0.00 0.00 99 1009.8
20200226235953 2 295 1.6 6.4 0.00 0.00 0.00 99 1009.8
20200226235345 2 278 1.6 12.9 0.00 0.00 0.00 99 1009.8
20200226234753 2 265 0.0 6.4 0.00 0.00 0.00 99 1009.8
20200226234145 2 281 0.0 0.0 0.00 0.00 0.00 99 1009.8
20200226233553 2 276 0.0 0.0 0.00 0.00 0.00 99 1009.8
20200226232944 2 274 0.0 6.4 0.00 0.00 0.00 99 1009.8
20200226232352 2 303 0.0 6.4 0.00 0.00 0.00 99 1009.8
20200226231800 2 279 0.0 0.0 0.00 0.00 0.00 99 1009.8
20200226231745 2 279 0.0 0.0 0.00 0.00 0.00 99 1009.5
20200226231152 2 279 0.0 6.4 0.00 0.00 0.00 99 1009.8
20200226230545 2 288 0.0 6.4 0.00 0.00 0.00 99 1009.5
20200226225952 2 274 0.0 0.0 0.00 0.00 0.28 99 1009.5
20200226225344 2 275 0.0 0.0 0.00 0.00 0.28 99 1009.5
20200226224752 2 278 0.0 0.0 0.00 0.00 0.28 99 1009.8
20200226224145 2 285 0.0 6.4 0.00 0.00 0.28 99 1009.8
20200226223552 2 283 1.6 6.4 0.00 0.00 0.28 99 1009.8
20200226222945 2 284 3.2 12.9 0.05 0.00 0.28 99 1009.8
20200226222352 2 282 1.6 12.9 0.05 0.00 0.28 99 1009.5
20200226221744 2 281 1.6 12.9 0.05 0.00 0.28 99 1009.5
20200226221151 2 288 0.0 6.4 0.05 0.00 0.28 99 1009.5
20200226220559 2 288 3.2 12.9 0.05 0.00 0.28 99 1009.5
20200226215951 2 310 3.2 12.9 0.05 0.00 0.28 99 1009.5
20200226215359 2 299 3.2 19.3 0.05 0.00 0.28 99 1009.5
20200226214751 2 279 1.6 12.9 0.05 0.00 0.28 99 1009.5
20200226214159 2 237 1.6 6.4 0.05 0.00 0.28 99 1009.1
20200226213551 2 278 0.0 6.4 0.05 0.00 0.28 99 1009.5
20200226212959 2 290 1.6 12.9 0.00 0.00 0.23 99 1009.5
20200226212351 2 314 0.0 12.9 0.03 0.00 0.23 99 1009.5
20200226211759 2 284 0.0 12.9 0.03 0.00 0.23 99 1009.5
20200226211151 2 282 1.6 6.4 0.03 0.00 0.23 99 1009.1
20200226210559 2 299 0.0 6.4 0.03 0.00 0.23 99 1009.1
20200226205951 2 279 0.0 6.4 0.03 0.00 0.23 99 1009.1
20200226205359 2 278 3.2 12.9 0.03 0.00 0.23 99 1009.1
20200226204751 2 284 0.0 6.4 0.03 0.00 0.23 99 1008.8
20200226204159 2 283 1.6 12.9 0.03 0.00 0.23 99 1009.1
20200226203551 2 294 0.0 6.4 0.03 0.00 0.23 99 1009.1
20200226202959 2 283 0.0 0.0 0.03 0.00 0.23 99 1008.8
20200226202351 2 269 1.6 25.7 0.00 0.00 0.20 99 1008.8
20200226201759 2 339 1.6 12.9 0.00 0.00 0.20 99 1008.5
20200226201151 1 275 0.0 6.4 0.00 0.00 0.20 99 1008.5
20200226200559 1 275 3.2 19.3 0.00 0.00 0.20 99 1008.5
20200226195951 1 252 1.6 6.4 0.00 0.00 0.20 99 1008.5
20200226195359 1 282 3.2 12.9 0.00 0.00 0.20 99 1008.5
20200226194751 1 287 1.6 12.9 0.00 0.00 0.20 99 1008.5
20200226194200 1 278 0.0 6.4 0.00 0.00 0.20 99 1008.1
20200226193551 1 283 0.0 6.4 0.00 0.00 0.20 99 1007.8
20200226192959 1 286 0.0 0.0 0.00 0.00 0.20 99 1008.1
20200226192351 0 274 0.0 6.4 0.00 0.00 0.20 99 1007.8
20200226191759 0 284 0.0 0.0 0.03 0.00 0.20 99 1007.8
20200226191151 0 279 0.0 6.4 0.03 0.00 0.20 99 1007.8
20200226190559 0 270 0.0 0.0 0.03 0.00 0.20 99 1007.8
20200226185951 0 270 0.0 0.0 0.03 0.00 0.20 99 1007.4
20200226185359 0 270 0.0 0.0 0.03 0.00 0.20 99 1007.8
20200226184751 0 270 0.0 0.0 0.03 0.00 0.20 99 1007.4
20200226184159 0 278 0.0 0.0 0.03 0.00 0.20 99 1007.4
20200226183551 0 274 0.0 0.0 0.05 0.00 0.20 99 1007.4
20200226182959 0 277 0.0 6.4 0.05 0.00 0.20 99 1007.4
20200226182351 0 284 0.0 0.0 0.05 0.00 0.20 99 1007.1
20200226181759 0 276 0.0 0.0 0.03 0.00 0.18 99 1007.4
20200226181151 0 268 1.6 12.9 0.03 0.00 0.18 99 1007.1
20200226180559 0 289 0.0 6.4 0.03 0.00 0.18 99 1007.1
20200226175951 1 294 1.6 6.4 0.03 0.00 0.18 99 1007.1
20200226175359 1 270 1.6 12.9 0.03 0.00 0.18 99 1007.1
20200226174751 2 312 8.0 32.2 0.03 0.00 0.18 99 1007.1
20200226173551 3 286 22.5 51.5 0.03 0.00 0.18 99 1006.8
20200226172959 3 265 17.7 45.1 0.00 0.00 0.15 98 1006.4
20200226172351 3 283 11.3 32.2 0.00 0.00 0.15 92 1006.1
20200226171759 3 287 11.3 25.7 0.00 0.00 0.15 93 1006.1
20200226171151 3 7 14.5 32.2 0.00 0.00 0.15 93 1005.8
20200226170559 3 288 9.7 25.7 0.00 0.00 0.15 94 1006.1
20200226165951 3 302 0.0 12.9 0.00 0.00 0.15 99 1005.8
20200226165359 3 305 3.2 12.9 0.00 0.00 0.15 98 1005.8
20200226164751 3 291 4.8 19.3 0.00 0.00 0.15 98 1005.8
20200226164159 3 292 9.7 25.7 0.00 0.00 0.15 97 1005.4
20200226163551 3 289 8.0 19.3 0.00 0.00 0.15 97 1005.4
20200226162959 3 300 9.7 25.7 0.00 0.00 0.15 96 1005.4
20200226162351 3 267 6.4 25.7 0.00 0.00 0.15 96 1005.1
20200226161759 3 264 12.9 25.7 0.00 0.00 0.15 94 1005.1
20200226161151 4 255 12.9 32.2 0.00 0.00 0.15 93 1005.1
20200226160559 4 322 14.5 45.1 0.00 0.00 0.15 91 1005.1
20200226155951 4 302 12.9 38.6 0.00 0.00 0.15 84 1004.7
20200226155359 5 281 14.5 38.6 0.00 0.00 0.15 83 1004.4
20200226154751 5 306 9.7 32.2 0.00 0.00 0.15 84 1004.4
20200226154159 5 285 12.9 32.2 0.00 0.00 0.15 83 1004.4
20200226153551 5 281 8.0 19.3 0.00 0.00 0.15 85 1004.4
20200226152959 5 292 9.7 32.2 0.00 0.00 0.15 84 1004.4
20200226152351 5 285 12.9 32.2 0.00 0.00 0.15 83 1004.1
20200226151759 5 309 17.7 45.1 0.00 0.00 0.15 83 1004.1
20200226151151 5 319 17.7 45.1 0.00 0.00 0.15 83 1004.1
20200226150559 5 293 11.3 32.2 0.00 0.00 0.15 84 1004.1
20200226145951 5 287 20.9 45.1 0.00 0.00 0.15 84 1004.1
20200226145359 5 221 20.9 45.1 0.00 0.00 0.15 82 1004.1
20200226144751 5 320 20.9 51.5 0.00 0.00 0.15 79 1003.7
20200226144159 5 302 22.5 51.5 0.00 0.00 0.15 78 1003.4
20200226143551 5 275 22.5 51.5 0.00 0.00 0.15 76 1003.4
20200226142959 5 346 20.9 45.1 0.00 0.00 0.15 76 1003.4
20200226142351 5 297 22.5 45.1 0.00 0.00 0.15 76 1003.4
20200226141759 5 282 24.1 51.5 0.00 0.00 0.15 77 1003.4
20200226141151 5 310 19.3 45.1 0.00 0.00 0.15 78 1003.4
20200226140559 5 302 22.5 57.9 0.00 0.00 0.15 78 1003.0
20200226135951 5 325 16.1 45.1 0.00 0.00 0.15 79 1003.4
20200226135359 5 315 19.3 38.6 0.00 0.00 0.15 80 1003.0
20200226134751 5 287 16.1 38.6 0.00 0.00 0.15 81 1003.0
20200226134159 5 277 17.7 38.6 0.00 0.00 0.15 80 1003.0
20200226133551 5 209 17.7 38.6 0.00 0.00 0.15 81 1003.0
20200226132959 5 265 17.7 45.1 0.00 0.00 0.15 82 1003.0
20200226132351 5 296 20.9 51.5 0.00 0.00 0.15 83 1003.0
20200226131759 4 284 22.5 51.5 0.00 0.00 0.15 84 1002.7
20200226131151 4 274 24.1 57.9 0.00 0.00 0.15 84 1003.0
20200226130559 4 269 24.1 45.1 0.00 0.00 0.15 83 1002.7
20200226125951 4 286 19.3 45.1 0.00 0.00 0.15 83 1002.7
20200226125359 4 330 20.9 51.5 0.00 0.00 0.15 82 1002.7
20200226124750 4 274 19.3 45.1 0.00 0.00 0.15 82 1002.7
20200226124159 4 301 20.9 45.1 0.00 0.00 0.15 83 1002.4
20200226123551 3 325 20.9 57.9 0.00 0.00 0.15 83 1002.4
20200226122959 3 307 20.9 38.6 0.00 0.00 0.15 84 1002.7
20200226122350 3 285 20.9 64.4 0.00 0.00 0.15 85 1002.4
20200226121758 3 303 17.7 64.4 0.00 0.00 0.15 89 1002.4
20200226121151 3 283 19.3 38.6 0.00 0.00 0.15 89 1002.4
20200226120559 3 151 16.1 38.6 0.00 0.00 0.15 91 1002.4